User: anonymous   Login
Location: Unspecified
(0.0000°N, 0.0000°E)
Time: 17:33:13
(UTC+00:00)
Language:

Meteor 1-26 - Orbit

View from above orbital plane
View from above orbital plane
View from above satellite
View from above satellite

Ground track
Ground track

The orbit data is extracted from the following two-line orbital elements,

1  9481U 76102A   18170.90124446 +.00000003 +00000-0 -55333-5 0  9993
2  9481 081.2176 013.9249 0023350 240.1873 119.6976 14.09777372142299
Epoch (UTC): 19 June 2018 21:37:47
Eccentricity: 0.0023350
inclination: 81.2176°
perigee height: 843 km
apogee height: 877 km
right ascension of ascending node: 13.9249°
argument of perigee: 240.1873°
revolutions per day: 14.09777372
mean anomaly at epoch: 119.6976°
orbit number at epoch: 14229

The dashed part of the orbit path shows where the satellite is in the earth's shadow,  

DLR